Time,TemperatureF,DewpointF,PressureIn,WindDirection,WindDirectionDegrees,WindSpeedMPH,WindSpeedGustMPH,Humidity,HourlyPrecipIn,Conditions,Clouds,dailyrainin,SoftwareType,DateUTC
2013-04-14 00:00:00,57.6,36.9,29.88,South,180,0.0,0.0,46,0.00,CLR,,0.00,WeatherDisplay:10.37,2013-04-14 05:00:00,
2013-04-14 00:05:00,57.6,36.9,29.88,South,180,0.0,0.0,46,0.00,CLR,,0.00,WeatherDisplay:10.37,2013-04-14 05:05:00,
2013-04-14 00:10:00,57.6,37.5,29.88,South,180,0.0,0.0,47,0.00,CLR,,0.00,WeatherDisplay:10.37,2013-04-14 05:10:00,
2013-04-14 00:15:00,57.6,37.5,29.88,South,180,0.0,0.0,47,0.00,CLR,,0.00,WeatherDisplay:10.37,2013-04-14 05:15:00,
2013-04-14 00:20:00,57.6,37.5,29.88,South,180,0.0,0.0,47,0.00,CLR,,0.00,WeatherDisplay:10.37,2013-04-14 05:20:00,
2013-04-14 00:25:00,57.6,36.9,29.88,South,180,0.0,0.0,46,0.00,CLR,,0.00,WeatherDisplay:10.37,2013-04-14 05:25:00,
2013-04-14 00:30:00,57.6,36.9,29.85,South,180,0.0,0.0,46,0.00,CLR,,0.00,WeatherDisplay:10.37,2013-04-14 05:30:00,
2013-04-14 00:35:00,57.6,37.5,29.85,South,180,0.0,0.0,47,0.00,CLR,,0.00,WeatherDisplay:10.37,2013-04-14 05:35:00,
2013-04-14 00:40:00,57.6,36.9,29.85,South,180,0.0,0.0,46,0.00,CLR,,0.00,WeatherDisplay:10.37,2013-04-14 05:40:00,
2013-04-14 00:45:00,57.4,37.3,29.83,South,180,0.0,0.0,47,0.00,CLR,,0.00,WeatherDisplay:10.37,2013-04-14 05:45:00,
2013-04-14 00:50:00,57.2,37.7,29.83,South,180,0.0,0.0,48,0.00,CLR,,0.00,WeatherDisplay:10.37,2013-04-14 05:50:00,
2013-04-14 00:55:00,57.2,38.2,29.83,South,180,0.0,0.0,49,0.00,CLR,,0.00,WeatherDisplay:10.37,2013-04-14 05:55:00,
2013-04-14 01:00:00,57.0,38.5,29.85,South,180,0.0,0.0,50,0.00,CLR,,0.00,WeatherDisplay:10.37,2013-04-14 06:00:00,
2013-04-14 01:05:00,56.8,37.9,29.85,South,180,0.0,0.0,49,0.00,CLR,,0.00,WeatherDisplay:10.37,2013-04-14 06:05:00,
2013-04-14 01:10:00,56.7,38.2,29.85,South,180,0.0,0.0,50,0.00,CLR,,0.00,WeatherDisplay:10.37,2013-04-14 06:10:00,
2013-04-14 01:15:00,56.5,38.1,29.83,South,180,0.0,0.0,50,0.00,CLR,,0.00,WeatherDisplay:10.37,2013-04-14 06:15:00,
2013-04-14 01:20:00,56.3,37.9,29.83,South,180,0.0,0.0,50,0.00,CLR,,0.00,WeatherDisplay:10.37,2013-04-14 06:20:00,
2013-04-14 01:25:00,56.1,38.2,29.83,South,180,0.0,0.0,51,0.00,CLR,,0.00,WeatherDisplay:10.37,2013-04-14 06:25:00,
2013-04-14 01:30:00,55.9,37.6,29.83,South,180,0.0,0.0,50,0.00,CLR,,0.00,WeatherDisplay:10.37,2013-04-14 06:30:00,
2013-04-14 01:35:00,55.8,38.4,29.83,South,180,0.0,0.0,52,0.00,CLR,,0.00,WeatherDisplay:10.37,2013-04-14 06:35:00,
2013-04-14 01:40:00,55.6,38.2,29.83,South,180,0.0,0.0,52,0.00,CLR,,0.00,WeatherDisplay:10.37,2013-04-14 06:40:00,
2013-04-14 01:45:00,55.4,38.1,29.83,South,180,0.0,0.0,52,0.00,CLR,,0.00,WeatherDisplay:10.37,2013-04-14 06:45:00,
2013-04-14 01:50:00,55.6,37.7,29.83,South,180,0.0,0.0,51,0.00,CLR,,0.00,WeatherDisplay:10.37,2013-04-14 06:50:00,
2013-04-14 01:55:00,55.9,40.0,29.83,South,180,0.0,0.0,55,0.00,CLR,,0.00,WeatherDisplay:10.37,2013-04-14 06:55:00,
2013-04-14 02:00:00,56.3,40.8,29.83,South,180,0.0,0.0,56,0.00,CLR,,0.00,WeatherDisplay:10.37,2013-04-14 07:00:00,
2013-04-14 02:05:00,56.5,41.4,29.83,South,180,0.0,0.0,57,0.00,CLR,,0.00,WeatherDisplay:10.37,2013-04-14 07:05:00,
2013-04-14 02:10:00,56.3,40.8,29.83,South,180,0.0,0.0,56,0.00,CLR,,0.00,WeatherDisplay:10.37,2013-04-14 07:10:00,
2013-04-14 02:15:00,56.5,41.0,29.80,South,180,0.0,0.0,56,0.00,CLR,,0.00,WeatherDisplay:10.37,2013-04-14 07:15:00,
2013-04-14 02:20:00,56.5,41.0,29.80,South,180,0.0,0.0,56,0.00,CLR,,0.00,WeatherDisplay:10.37,2013-04-14 07:20:00,
2013-04-14 02:25:00,56.8,41.8,29.80,South,180,0.0,0.0,57,0.00,CLR,,0.00,WeatherDisplay:10.37,2013-04-14 07:25:00,
2013-04-14 02:30:00,57.0,41.9,29.80,South,180,0.0,0.0,57,0.00,CLR,,0.00,WeatherDisplay:10.37,2013-04-14 07:30:00,
2013-04-14 02:35:00,57.0,41.9,29.80,South,180,0.0,0.0,57,0.00,CLR,,0.00,WeatherDisplay:10.37,2013-04-14 07:35:00,
2013-04-14 02:40:00,57.2,42.5,29.80,South,180,0.0,0.0,58,0.00,CLR,,0.00,WeatherDisplay:10.37,2013-04-14 07:40:00,
2013-04-14 02:45:00,57.4,42.3,29.80,South,180,0.0,0.0,57,0.00,CLR,,0.00,WeatherDisplay:10.37,2013-04-14 07:45:00,
2013-04-14 02:50:00,57.6,42.9,29.80,South,180,0.0,0.0,58,0.00,CLR,,0.00,WeatherDisplay:10.37,2013-04-14 07:50:00,
2013-04-14 02:55:00,57.6,42.9,29.80,South,180,0.0,0.0,58,0.00,CLR,,0.00,WeatherDisplay:10.37,2013-04-14 07:55:00,
2013-04-14 03:00:00,57.7,43.1,29.77,South,180,0.0,0.0,58,0.00,CLR,,0.00,WeatherDisplay:10.37,2013-04-14 08:00:00,
2013-04-14 03:05:00,57.9,43.2,29.77,South,180,0.0,0.0,58,0.00,CLR,,0.00,WeatherDisplay:10.37,2013-04-14 08:05:00,
2013-04-14 03:10:00,58.1,43.4,29.77,South,180,0.0,0.0,58,0.00,CLR,,0.00,WeatherDisplay:10.37,2013-04-14 08:10:00,
2013-04-14 03:15:00,58.1,42.9,29.80,South,180,0.0,0.0,57,0.00,CLR,,0.00,WeatherDisplay:10.37,2013-04-14 08:15:00,
2013-04-14 03:20:00,58.1,42.9,29.80,South,180,0.0,0.0,57,0.00,CLR,,0.00,WeatherDisplay:10.37,2013-04-14 08:20:00,
2013-04-14 03:25:00,58.3,43.1,29.80,South,180,0.0,0.0,57,0.00,CLR,,0.00,WeatherDisplay:10.37,2013-04-14 08:25:00,
2013-04-14 03:30:00,58.3,43.1,29.80,South,180,0.0,0.0,57,0.00,CLR,,0.00,WeatherDisplay:10.37,2013-04-14 08:30:00,
2013-04-14 03:35:00,58.5,43.3,29.80,South,180,0.0,0.0,57,0.00,CLR,,0.00,WeatherDisplay:10.37,2013-04-14 08:35:00,
2013-04-14 03:40:00,58.5,43.7,29.80,South,180,0.0,0.0,58,0.00,CLR,,0.00,WeatherDisplay:10.37,2013-04-14 08:40:00,
2013-04-14 03:45:00,58.5,43.3,29.83,South,180,0.0,0.0,57,0.00,CLR,,0.00,WeatherDisplay:10.37,2013-04-14 08:45:00,
2013-04-14 03:50:00,58.5,43.3,29.83,South,180,0.0,0.0,57,0.00,CLR,,0.00,WeatherDisplay:10.37,2013-04-14 08:50:00,
2013-04-14 03:55:00,58.6,43.4,29.83,South,180,0.0,0.0,57,0.00,CLR,,0.00,WeatherDisplay:10.37,2013-04-14 08:55:00,
2013-04-14 04:00:00,58.6,43.0,29.80,South,180,0.0,0.0,56,0.00,CLR,,0.00,WeatherDisplay:10.37,2013-04-14 09:00:00,
2013-04-14 04:05:00,58.6,43.4,29.80,South,180,0.0,0.0,57,0.00,CLR,,0.00,WeatherDisplay:10.37,2013-04-14 09:05:00,
2013-04-14 04:10:00,58.6,43.4,29.80,South,180,0.0,0.0,57,0.00,CLR,,0.00,WeatherDisplay:10.37,2013-04-14 09:10:00,
2013-04-14 04:15:00,58.5,43.7,29.80,South,180,0.0,0.0,58,0.00,CLR,,0.00,WeatherDisplay:10.37,2013-04-14 09:15:00,
2013-04-14 04:20:00,58.5,43.7,29.80,South,180,0.0,0.0,58,0.00,CLR,,0.00,WeatherDisplay:10.37,2013-04-14 09:20:00,
2013-04-14 04:25:00,58.5,43.7,29.80,South,180,0.0,0.0,58,0.00,CLR,,0.00,WeatherDisplay:10.37,2013-04-14 09:25:00,
2013-04-14 04:30:00,58.5,43.3,29.80,South,180,0.0,0.0,57,0.00,CLR,,0.00,WeatherDisplay:10.37,2013-04-14 09:30:00,
2013-04-14 04:35:00,58.3,43.1,29.80,South,180,0.0,0.0,57,0.00,CLR,,0.00,WeatherDisplay:10.37,2013-04-14 09:35:00,
2013-04-14 04:40:00,58.3,43.1,29.80,South,180,0.0,0.0,57,0.00,CLR,,0.00,WeatherDisplay:10.37,2013-04-14 09:40:00,
2013-04-14 04:45:00,58.3,42.6,29.80,South,180,0.0,0.0,56,0.00,CLR,,0.00,WeatherDisplay:10.37,2013-04-14 09:45:00,
2013-04-14 04:50:00,58.3,43.1,29.80,South,180,0.0,0.0,57,0.00,CLR,,0.00,WeatherDisplay:10.37,2013-04-14 09:50:00,
2013-04-14 04:55:00,58.3,44.0,29.77,South,180,0.0,0.0,59,0.00,CLR,,0.00,WeatherDisplay:10.37,2013-04-14 09:55:00,
2013-04-14 05:00:00,58.1,43.4,29.77,South,180,0.0,0.0,58,0.00,CLR,,0.00,WeatherDisplay:10.37,2013-04-14 10:00:00,
2013-04-14 05:05:00,58.1,43.4,29.77,South,180,0.0,0.0,58,0.00,CLR,,0.00,WeatherDisplay:10.37,2013-04-14 10:05:00,
2013-04-14 05:10:00,57.9,43.2,29.80,South,180,0.0,0.0,58,0.00,CLR,,0.00,WeatherDisplay:10.37,2013-04-14 10:10:00,
2013-04-14 05:15:00,57.9,43.2,29.80,South,180,0.0,0.0,58,0.00,CLR,,0.00,WeatherDisplay:10.37,2013-04-14 10:15:00,
2013-04-14 05:21:00,57.7,43.1,29.80,South,180,0.0,0.0,58,0.00,CLR,,0.00,WeatherDisplay:10.37,2013-04-14 10:21:00,
2013-04-14 05:26:00,57.7,43.1,29.80,South,180,0.0,0.0,58,0.00,CLR,,0.00,WeatherDisplay:10.37,2013-04-14 10:26:00,
2013-04-14 05:31:00,57.6,42.9,29.80,South,180,0.0,0.0,58,0.00,CLR,,0.00,WeatherDisplay:10.37,2013-04-14 10:31:00,
2013-04-14 05:36:00,57.6,42.9,29.80,South,180,0.0,0.0,58,0.00,CLR,,0.00,WeatherDisplay:10.37,2013-04-14 10:36:00,
2013-04-14 05:41:00,57.6,42.9,29.80,South,180,0.0,0.0,58,0.00,CLR,,0.00,WeatherDisplay:10.37,2013-04-14 10:41:00,
2013-04-14 05:46:00,57.4,42.7,29.80,South,180,0.0,0.0,58,0.00,CLR,,0.00,WeatherDisplay:10.37,2013-04-14 10:46:00,
2013-04-14 05:51:00,57.2,42.5,29.80,South,180,0.0,0.0,58,0.00,CLR,,0.00,WeatherDisplay:10.37,2013-04-14 10:51:00,
2013-04-14 05:56:00,57.2,43.0,29.80,South,180,0.0,0.0,59,0.00,CLR,,0.00,WeatherDisplay:10.37,2013-04-14 10:56:00,
2013-04-14 06:01:00,57.2,42.5,29.80,South,180,0.0,0.0,58,0.00,CLR,,0.00,WeatherDisplay:10.37,2013-04-14 11:01:00,
2013-04-14 06:06:00,57.0,42.4,29.80,South,180,0.0,0.0,58,0.00,CLR,,0.00,WeatherDisplay:10.37,2013-04-14 11:06:00,
2013-04-14 06:11:00,56.8,42.7,29.83,South,180,0.0,0.0,59,0.00,CLR,,0.00,WeatherDisplay:10.37,2013-04-14 11:11:00,
2013-04-14 06:16:00,56.7,42.5,29.83,South,180,0.0,0.0,59,0.00,CLR,,0.00,WeatherDisplay:10.37,2013-04-14 11:16:00,
2013-04-14 06:21:00,56.7,42.9,29.83,South,180,0.0,0.0,60,0.00,CLR,,0.00,WeatherDisplay:10.37,2013-04-14 11:21:00,
2013-04-14 06:26:00,56.7,43.8,29.80,South,180,0.0,0.0,62,0.00,CLR,,0.00,WeatherDisplay:10.37,2013-04-14 11:26:00,
2013-04-14 06:31:00,56.7,43.8,29.80,South,180,0.0,0.0,62,0.00,CLR,,0.00,WeatherDisplay:10.37,2013-04-14 11:31:00,
2013-04-14 06:36:00,56.7,44.2,29.80,South,180,0.0,0.0,63,0.00,CLR,,0.00,WeatherDisplay:10.37,2013-04-14 11:36:00,
2013-04-14 06:41:00,56.7,45.0,29.83,South,180,0.0,0.0,65,0.00,CLR,,0.00,WeatherDisplay:10.37,2013-04-14 11:41:00,
2013-04-14 06:46:00,56.8,46.0,29.83,South,180,0.0,0.0,67,0.00,CLR,,0.00,WeatherDisplay:10.37,2013-04-14 11:46:00,
2013-04-14 06:51:00,56.8,47.2,29.83,South,180,0.0,0.0,70,0.00,CLR,,0.00,WeatherDisplay:10.37,2013-04-14 11:51:00,
2013-04-14 06:56:00,56.8,47.5,29.83,SSE,158,0.0,0.0,71,0.00,CLR,,0.00,WeatherDisplay:10.37,2013-04-14 11:56:00,
2013-04-14 07:01:00,56.8,47.5,29.83,SSE,158,0.0,0.0,71,0.00,CLR,,0.00,WeatherDisplay:10.37,2013-04-14 12:01:00,
2013-04-14 07:06:00,56.8,46.8,29.83,South,180,0.0,0.0,69,0.00,CLR,,0.00,WeatherDisplay:10.37,2013-04-14 12:06:00,
2013-04-14 07:11:00,57.2,46.3,29.83,South,180,0.0,0.0,67,0.00,CLR,,0.00,WeatherDisplay:10.37,2013-04-14 12:11:00,
2013-04-14 07:16:00,57.2,46.3,29.83,South,180,0.0,0.0,67,0.00,CLR,,0.00,WeatherDisplay:10.37,2013-04-14 12:16:00,
2013-04-14 07:21:00,57.2,46.3,29.83,South,180,0.0,0.0,67,0.00,CLR,,0.00,WeatherDisplay:10.37,2013-04-14 12:21:00,
2013-04-14 07:26:00,57.4,46.1,29.85,South,180,0.0,0.0,66,0.00,CLR,,0.00,WeatherDisplay:10.37,2013-04-14 12:26:00,
2013-04-14 07:31:00,57.6,45.9,29.85,South,180,0.0,0.0,65,0.00,CLR,,0.00,WeatherDisplay:10.37,2013-04-14 12:31:00,
2013-04-14 07:36:00,57.6,45.5,29.85,SE,135,0.0,0.0,64,0.00,CLR,,0.00,WeatherDisplay:10.37,2013-04-14 12:36:00,
2013-04-14 07:41:00,57.7,46.0,29.85,SE,135,0.0,0.0,65,0.00,CLR,,0.00,WeatherDisplay:10.37,2013-04-14 12:41:00,
2013-04-14 07:47:00,57.7,46.5,29.85,NE,45,0.0,0.0,66,0.00,CLR,,0.00,WeatherDisplay:10.37,2013-04-14 12:47:00,
2013-04-14 07:52:00,58.1,47.2,29.85,ESE,112,0.0,0.0,67,0.00,CLR,,0.00,WeatherDisplay:10.37,2013-04-14 12:52:00,
2013-04-14 07:57:00,58.1,46.8,29.83,WNW,292,0.0,0.0,66,0.00,CLR,,0.00,WeatherDisplay:10.37,2013-04-14 12:57:00,
2013-04-14 08:02:00,58.3,46.6,29.83,West,270,0.0,0.0,65,0.00,CLR,,0.00,WeatherDisplay:10.37,2013-04-14 13:02:00,
2013-04-14 08:07:00,58.6,46.5,29.83,West,270,0.0,0.0,64,0.00,CLR,,0.00,WeatherDisplay:10.37,2013-04-14 13:07:00,
2013-04-14 08:12:00,58.8,45.8,29.83,West,270,0.0,0.0,62,0.00,CLR,,0.00,WeatherDisplay:10.37,2013-04-14 13:12:00,
2013-04-14 08:17:00,58.8,45.4,29.83,West,270,0.0,0.0,61,0.00,CLR,,0.00,WeatherDisplay:10.37,2013-04-14 13:17:00,
2013-04-14 08:22:00,59.0,46.0,29.83,West,270,0.0,0.0,62,0.00,CLR,,0.00,WeatherDisplay:10.37,2013-04-14 13:22:00,
2013-04-14 08:27:00,59.2,45.3,29.83,West,270,0.0,0.0,60,0.00,CLR,,0.00,WeatherDisplay:10.37,2013-04-14 13:27:00,
2013-04-14 08:32:00,59.5,45.2,29.83,West,270,0.0,0.0,59,0.00,CLR,,0.00,WeatherDisplay:10.37,2013-04-14 13:32:00,
2013-04-14 08:37:00,59.9,45.1,29.83,West,270,0.0,0.0,58,0.00,CLR,,0.00,WeatherDisplay:10.37,2013-04-14 13:37:00,
2013-04-14 08:42:00,60.3,45.4,29.83,West,270,0.0,0.0,58,0.00,CLR,,0.00,WeatherDisplay:10.37,2013-04-14 13:42:00,
2013-04-14 08:47:00,60.6,44.8,29.83,West,270,0.0,0.0,56,0.00,CLR,,0.00,WeatherDisplay:10.37,2013-04-14 13:47:00,
2013-04-14 08:53:00,61.0,44.7,29.83,West,270,0.0,0.0,55,0.00,CLR,,0.00,WeatherDisplay:10.37,2013-04-14 13:53:00,
2013-04-14 08:58:00,61.3,45.0,29.83,West,270,0.0,0.0,55,0.00,CLR,,0.00,WeatherDisplay:10.37,2013-04-14 13:58:00,
2013-04-14 09:03:00,61.7,44.9,29.83,West,270,0.0,0.0,54,0.00,CLR,,0.00,WeatherDisplay:10.37,2013-04-14 14:03:00,
2013-04-14 09:08:00,62.1,44.7,29.83,South,180,2.3,0.0,53,0.00,CLR,,0.00,WeatherDisplay:10.37,2013-04-14 14:08:00,
2013-04-14 09:13:00,62.6,44.7,29.83,South,180,2.3,2.3,52,0.00,CLR,,0.00,WeatherDisplay:10.37,2013-04-14 14:13:00,
2013-04-14 09:18:00,63.0,44.0,29.83,South,180,0.0,0.0,50,0.00,CLR,,0.00,WeatherDisplay:10.37,2013-04-14 14:18:00,
2013-04-14 09:23:00,63.3,43.8,29.83,South,180,0.0,0.0,49,0.00,CLR,,0.00,WeatherDisplay:10.37,2013-04-14 14:23:00,
2013-04-14 09:28:00,63.5,43.4,29.80,SSE,158,2.3,2.3,48,0.00,CLR,,0.00,WeatherDisplay:10.37,2013-04-14 14:28:00,
2013-04-14 09:33:00,63.5,41.2,29.80,SE,135,4.6,4.6,44,0.00,CLR,,0.00,WeatherDisplay:10.37,2013-04-14 14:33:00,
2013-04-14 09:38:00,63.7,41.3,29.80,SSE,158,0.0,0.0,44,0.00,CLR,,0.00,WeatherDisplay:10.37,2013-04-14 14:38:00,
2013-04-14 09:43:00,64.0,41.7,29.83,South,180,0.0,0.0,44,0.00,CLR,,0.00,WeatherDisplay:10.37,2013-04-14 14:43:00,
2013-04-14 09:48:00,64.6,42.2,29.83,South,180,0.0,0.0,44,0.00,CLR,,0.00,WeatherDisplay:10.37,2013-04-14 14:48:00,
2013-04-14 09:53:00,65.1,42.1,29.83,SE,135,0.0,0.0,43,0.00,CLR,,0.00,WeatherDisplay:10.37,2013-04-14 14:53:00,
2013-04-14 09:58:00,65.5,41.8,29.83,SSE,158,0.0,0.0,42,0.00,CLR,,0.00,WeatherDisplay:10.37,2013-04-14 14:58:00,
2013-04-14 10:03:00,65.5,41.1,29.83,South,180,0.0,0.0,41,0.00,CLR,,0.00,WeatherDisplay:10.37,2013-04-14 15:03:00,
2013-04-14 10:08:00,65.3,40.3,29.83,South,180,0.0,0.0,40,0.00,CLR,,0.00,WeatherDisplay:10.37,2013-04-14 15:08:00,
2013-04-14 10:13:00,65.7,41.3,29.80,South,180,0.0,0.0,41,0.00,CLR,,0.00,WeatherDisplay:10.37,2013-04-14 15:13:00,
2013-04-14 10:18:00,66.2,41.8,29.80,SSE,158,0.0,0.0,41,0.00,CLR,,0.00,WeatherDisplay:10.37,2013-04-14 15:18:00,
2013-04-14 10:23:00,66.9,41.1,29.80,NE,45,0.0,0.0,39,0.00,CLR,,0.00,WeatherDisplay:10.37,2013-04-14 15:23:00,
2013-04-14 10:28:00,66.9,40.5,29.83,South,180,1.2,0.0,38,0.00,CLR,,0.00,WeatherDisplay:10.37,2013-04-14 15:28:00,
2013-04-14 10:33:00,66.7,39.6,29.83,SSE,158,0.0,0.0,37,0.00,CLR,,0.00,WeatherDisplay:10.37,2013-04-14 15:33:00,
2013-04-14 10:38:00,67.8,40.6,29.83,SE,135,1.2,0.0,37,0.00,CLR,,0.00,WeatherDisplay:10.37,2013-04-14 15:38:00,
2013-04-14 10:43:00,68.2,39.5,29.80,South,180,2.3,0.0,35,0.00,CLR,,0.00,WeatherDisplay:10.37,2013-04-14 15:43:00,
2013-04-14 10:48:00,68.4,39.6,29.80,SSE,158,0.0,0.0,35,0.00,CLR,,0.00,WeatherDisplay:10.37,2013-04-14 15:48:00,
2013-04-14 10:53:00,68.0,38.6,29.80,SSE,158,5.8,5.8,34,0.00,CLR,,0.00,WeatherDisplay:10.37,2013-04-14 15:53:00,
2013-04-14 10:58:00,68.5,39.0,29.80,South,180,2.3,2.3,34,0.00,CLR,,0.00,WeatherDisplay:10.37,2013-04-14 15:58:00,
2013-04-14 11:03:00,68.9,38.6,29.80,South,180,4.6,4.6,33,0.00,CLR,,0.00,WeatherDisplay:10.37,2013-04-14 16:03:00,
2013-04-14 11:08:00,68.7,37.7,29.80,South,180,6.9,6.9,32,0.00,CLR,,0.00,WeatherDisplay:10.37,2013-04-14 16:08:00,
2013-04-14 11:13:00,69.6,39.2,29.80,West,270,2.3,2.3,33,0.00,CLR,,0.00,WeatherDisplay:10.37,2013-04-14 16:13:00,
2013-04-14 11:18:00,70.7,39.4,29.80,WSW,248,8.1,8.1,32,0.00,CLR,,0.00,WeatherDisplay:10.37,2013-04-14 16:18:00,
2013-04-14 11:23:00,70.3,39.1,29.80,SW,225,2.3,0.0,32,0.00,CLR,,0.00,WeatherDisplay:10.37,2013-04-14 16:23:00,
2013-04-14 11:28:00,70.9,39.5,29.80,SSW,202,0.0,0.0,32,0.00,CLR,,0.00,WeatherDisplay:10.37,2013-04-14 16:28:00,
2013-04-14 11:33:00,70.7,38.6,29.80,SE,135,0.0,0.0,31,0.00,CLR,,0.00,WeatherDisplay:10.37,2013-04-14 16:33:00,
2013-04-14 11:38:00,70.2,38.1,29.80,WNW,292,4.6,4.6,31,0.00,CLR,,0.00,WeatherDisplay:10.37,2013-04-14 16:38:00,
2013-04-14 11:43:00,70.9,38.7,29.80,SSW,202,1.2,0.0,31,0.00,CLR,,0.00,WeatherDisplay:10.37,2013-04-14 16:43:00,
2013-04-14 11:48:00,70.7,36.9,29.80,SW,225,8.1,8.1,29,0.00,CLR,,0.00,WeatherDisplay:10.37,2013-04-14 16:48:00,
2013-04-14 11:53:00,71.8,38.7,29.80,West,270,3.5,3.5,30,0.00,CLR,,0.00,WeatherDisplay:10.37,2013-04-14 16:53:00,
2013-04-14 11:58:00,73.0,37.1,29.80,SE,135,8.1,8.1,27,0.00,CLR,,0.00,WeatherDisplay:10.37,2013-04-14 16:58:00,
2013-04-14 12:03:00,71.8,34.0,29.80,South,180,4.6,4.6,25,0.00,CLR,,0.00,WeatherDisplay:10.37,2013-04-14 17:03:00,
2013-04-14 12:08:00,72.9,36.9,29.80,South,180,0.0,0.0,27,0.00,CLR,,0.00,WeatherDisplay:10.37,2013-04-14 17:08:00,
2013-04-14 12:13:00,72.1,35.3,29.80,North,0,2.3,0.0,26,0.00,CLR,,0.00,WeatherDisplay:10.37,2013-04-14 17:13:00,
2013-04-14 12:18:00,73.8,34.7,29.80,NE,45,1.2,1.2,24,0.00,CLR,,0.00,WeatherDisplay:10.37,2013-04-14 17:18:00,
2013-04-14 12:23:00,74.5,34.2,29.80,South,180,2.3,2.3,23,0.00,CLR,,0.00,WeatherDisplay:10.37,2013-04-14 17:23:00,
2013-04-14 12:28:00,75.4,35.0,29.77,South,180,4.6,4.6,23,0.00,CLR,,0.00,WeatherDisplay:10.37,2013-04-14 17:28:00,
2013-04-14 12:33:00,76.8,35.1,29.77,South,180,2.3,0.0,22,0.00,CLR,,0.00,WeatherDisplay:10.37,2013-04-14 17:33:00,
2013-04-14 12:38:00,77.2,35.4,29.77,South,180,2.3,2.3,22,0.00,CLR,,0.00,WeatherDisplay:10.37,2013-04-14 17:38:00,
2013-04-14 12:43:00,77.5,34.5,29.74,East,90,5.8,5.8,21,0.00,CLR,,0.00,WeatherDisplay:10.37,2013-04-14 17:43:00,
2013-04-14 12:49:00,77.2,33.0,29.74,SSE,158,8.1,8.1,20,0.00,CLR,,0.00,WeatherDisplay:10.37,2013-04-14 17:49:00,
2013-04-14 12:54:00,77.0,34.1,29.74,South,180,1.2,0.0,21,0.00,CLR,,0.00,WeatherDisplay:10.37,2013-04-14 17:54:00,
2013-04-14 12:59:00,76.3,33.5,29.74,South,180,5.8,5.8,21,0.00,CLR,,0.00,WeatherDisplay:10.37,2013-04-14 17:59:00,
2013-04-14 13:04:00,76.8,33.9,29.74,South,180,2.3,2.3,21,0.00,CLR,,0.00,WeatherDisplay:10.37,2013-04-14 18:04:00,
2013-04-14 13:09:00,78.6,34.2,29.74,South,180,4.6,4.6,20,0.00,CLR,,0.00,WeatherDisplay:10.37,2013-04-14 18:09:00,
2013-04-14 13:14:00,79.0,34.5,29.71,SE,135,5.8,5.8,20,0.00,CLR,,0.00,WeatherDisplay:10.37,2013-04-14 18:14:00,
2013-04-14 13:19:00,78.8,34.3,29.71,ESE,112,3.5,3.5,20,0.00,CLR,,0.00,WeatherDisplay:10.37,2013-04-14 18:19:00,
2013-04-14 13:24:00,79.7,33.8,29.71,South,180,1.2,0.0,19,0.00,CLR,,0.00,WeatherDisplay:10.37,2013-04-14 18:24:00,
2013-04-14 13:29:00,79.2,34.6,29.68,SSE,158,1.2,1.2,20,0.00,CLR,,0.00,WeatherDisplay:10.37,2013-04-14 18:29:00,
2013-04-14 13:34:00,80.4,34.4,29.68,SE,135,3.5,0.0,19,0.00,CLR,,0.00,WeatherDisplay:10.37,2013-04-14 18:34:00,
2013-04-14 13:39:00,80.2,34.2,29.68,SE,135,3.5,3.5,19,0.00,CLR,,0.00,WeatherDisplay:10.37,2013-04-14 18:39:00,
2013-04-14 13:44:00,80.4,34.4,29.68,ESE,112,2.3,2.3,19,0.00,CLR,,0.00,WeatherDisplay:10.37,2013-04-14 18:44:00,
2013-04-14 13:49:00,81.3,33.7,29.68,SE,135,3.5,0.0,18,0.00,CLR,,0.00,WeatherDisplay:10.37,2013-04-14 18:49:00,
2013-04-14 13:54:00,80.1,29.8,29.68,South,180,3.8,3.8,16,0.00,CLR,,0.00,WeatherDisplay:10.37,2013-04-14 18:54:00,
2013-04-14 13:59:00,80.6,34.5,29.68,SE,135,4.6,4.6,19,0.00,CLR,,0.00,WeatherDisplay:10.37,2013-04-14 18:59:00,
2013-04-14 14:04:00,81.3,33.7,29.68,South,180,0.0,0.0,18,0.00,CLR,,0.00,WeatherDisplay:10.37,2013-04-14 19:04:00,
2013-04-14 14:09:00,81.1,35.0,29.68,South,180,3.5,3.5,19,0.00,CLR,,0.00,WeatherDisplay:10.37,2013-04-14 19:09:00,
2013-04-14 14:14:00,82.0,31.4,29.65,South,180,3.5,3.5,16,0.00,CLR,,0.00,WeatherDisplay:10.37,2013-04-14 19:14:00,
2013-04-14 14:19:00,81.7,31.1,29.65,SE,135,3.5,3.5,16,0.00,CLR,,0.00,WeatherDisplay:10.37,2013-04-14 19:19:00,
2013-04-14 14:24:00,82.0,31.4,29.65,South,180,0.0,0.0,16,0.00,CLR,,0.00,WeatherDisplay:10.37,2013-04-14 19:24:00,
2013-04-14 14:29:00,82.2,31.5,29.65,SW,225,1.2,0.0,16,0.00,CLR,,0.00,WeatherDisplay:10.37,2013-04-14 19:29:00,
2013-04-14 14:34:00,81.5,31.0,29.65,South,180,4.6,4.6,16,0.00,CLR,,0.00,WeatherDisplay:10.37,2013-04-14 19:34:00,
2013-04-14 14:39:00,82.2,31.5,29.65,SW,225,0.0,0.0,16,0.00,CLR,,0.00,WeatherDisplay:10.37,2013-04-14 19:39:00,
2013-04-14 14:44:00,82.6,31.8,29.65,SSE,158,2.3,2.9,16,0.00,CLR,,0.00,WeatherDisplay:10.37,2013-04-14 19:44:00,
2013-04-14 14:49:00,80.6,30.2,29.65,SE,135,4.6,4.6,16,0.00,CLR,,0.00,WeatherDisplay:10.37,2013-04-14 19:49:00,
2013-04-14 14:54:00,81.5,31.0,29.65,South,180,0.0,0.0,16,0.00,CLR,,0.00,WeatherDisplay:10.37,2013-04-14 19:54:00,
2013-04-14 14:59:00,80.4,30.1,29.62,SSE,158,5.8,5.8,16,0.00,CLR,,0.00,WeatherDisplay:10.37,2013-04-14 19:59:00,
2013-04-14 15:04:00,80.1,29.8,29.62,West,270,2.3,2.3,16,0.00,CLR,,0.00,WeatherDisplay:10.37,2013-04-14 20:04:00,
2013-04-14 15:10:00,81.1,30.7,29.62,ESE,112,2.9,2.9,16,0.00,CLR,,0.00,WeatherDisplay:10.37,2013-04-14 20:10:00,
2013-04-14 15:15:00,80.4,30.1,29.62,South,180,4.6,4.6,16,0.00,CLR,,0.00,WeatherDisplay:10.37,2013-04-14 20:15:00,
2013-04-14 15:20:00,79.3,30.7,29.62,SE,135,2.3,2.6,17,0.00,CLR,,0.00,WeatherDisplay:10.37,2013-04-14 20:20:00,
2013-04-14 15:25:00,79.5,29.4,29.62,SE,135,3.5,3.5,16,0.00,CLR,,0.00,WeatherDisplay:10.37,2013-04-14 20:25:00,
2013-04-14 15:30:00,79.5,29.4,29.59,SE,135,4.6,4.6,16,0.00,CLR,,0.00,WeatherDisplay:10.37,2013-04-14 20:30:00,
2013-04-14 15:35:00,79.2,30.6,29.59,South,180,5.8,5.8,17,0.00,CLR,,0.00,WeatherDisplay:10.37,2013-04-14 20:35:00,
2013-04-14 15:40:00,79.3,33.5,29.59,SE,135,3.5,3.5,19,0.00,CLR,,0.00,WeatherDisplay:10.37,2013-04-14 20:40:00,
2013-04-14 15:45:00,78.8,30.3,29.62,SSW,202,4.6,4.6,17,0.00,CLR,,0.00,WeatherDisplay:10.37,2013-04-14 20:45:00,
2013-04-14 15:50:00,79.5,33.6,29.62,South,180,2.3,2.3,19,0.00,CLR,,0.00,WeatherDisplay:10.37,2013-04-14 20:50:00,
2013-04-14 15:55:00,79.0,30.4,29.62,SSE,158,4.6,4.6,17,0.00,CLR,,0.00,WeatherDisplay:10.37,2013-04-14 20:55:00,
2013-04-14 16:00:00,79.0,33.2,29.62,SSW,202,0.0,0.0,19,0.00,CLR,,0.00,WeatherDisplay:10.37,2013-04-14 21:00:00,
2013-04-14 16:05:00,78.6,32.9,29.62,SW,225,5.8,5.8,19,0.00,CLR,,0.00,WeatherDisplay:10.37,2013-04-14 21:05:00,
2013-04-14 16:10:00,77.9,32.3,29.62,SE,135,4.6,4.6,19,0.00,CLR,,0.00,WeatherDisplay:10.37,2013-04-14 21:10:00,
2013-04-14 16:15:00,77.0,32.8,29.62,South,180,2.3,2.3,20,0.00,CLR,,0.00,WeatherDisplay:10.37,2013-04-14 21:15:00,
2013-04-14 16:20:00,77.5,33.3,29.62,SE,135,5.8,5.8,20,0.00,CLR,,0.00,WeatherDisplay:10.37,2013-04-14 21:20:00,
2013-04-14 16:25:00,78.3,33.9,29.62,South,180,3.5,3.5,20,0.00,CLR,,0.00,WeatherDisplay:10.37,2013-04-14 21:25:00,
2013-04-14 16:30:00,78.4,34.0,29.62,South,180,4.7,4.7,20,0.00,CLR,,0.00,WeatherDisplay:10.37,2013-04-14 21:30:00,
2013-04-14 16:35:00,78.1,32.4,29.62,SE,135,9.2,9.2,19,0.00,CLR,,0.00,WeatherDisplay:10.37,2013-04-14 21:35:00,
2013-04-14 16:40:00,77.7,32.1,29.62,SSE,158,8.1,8.1,19,0.00,CLR,,0.00,WeatherDisplay:10.37,2013-04-14 21:40:00,
2013-04-14 16:45:00,77.7,32.1,29.62,South,180,8.1,8.1,19,0.00,CLR,,0.00,WeatherDisplay:10.37,2013-04-14 21:45:00,
2013-04-14 16:50:00,77.7,33.4,29.62,SE,135,9.2,9.2,20,0.00,CLR,,0.00,WeatherDisplay:10.37,2013-04-14 21:50:00,
2013-04-14 16:55:00,77.4,33.1,29.62,South,180,3.5,4.5,20,0.00,CLR,,0.00,WeatherDisplay:10.37,2013-04-14 21:55:00,
2013-04-14 17:00:00,77.5,33.3,29.62,SE,135,5.8,5.8,20,0.00,CLR,,0.00,WeatherDisplay:10.37,2013-04-14 22:00:00,
2013-04-14 17:05:00,77.4,33.1,29.62,South,180,5.8,5.8,20,0.00,CLR,,0.00,WeatherDisplay:10.37,2013-04-14 22:05:00,
2013-04-14 17:10:00,78.1,33.7,29.62,SE,135,2.3,2.3,20,0.00,CLR,,0.00,WeatherDisplay:10.37,2013-04-14 22:10:00,
2013-04-14 17:15:00,77.7,33.4,29.59,SE,135,3.5,3.5,20,0.00,CLR,,0.00,WeatherDisplay:10.37,2013-04-14 22:15:00,
2013-04-14 17:20:00,77.2,33.0,29.59,South,180,5.8,5.8,20,0.00,CLR,,0.00,WeatherDisplay:10.37,2013-04-14 22:20:00,
2013-04-14 17:25:00,76.8,32.7,29.59,SSW,202,4.6,4.6,20,0.00,CLR,,0.00,WeatherDisplay:10.37,2013-04-14 22:25:00,
2013-04-14 17:30:00,77.2,33.0,29.59,South,180,2.3,2.3,20,0.00,CLR,,0.00,WeatherDisplay:10.37,2013-04-14 22:30:00,
2013-04-14 17:35:00,77.5,33.3,29.59,SSE,158,2.3,2.3,20,0.00,CLR,,0.00,WeatherDisplay:10.37,2013-04-14 22:35:00,
2013-04-14 17:40:00,78.1,33.7,29.59,SE,135,5.8,5.8,20,0.00,CLR,,0.00,WeatherDisplay:10.37,2013-04-14 22:40:00,
2013-04-14 17:45:00,77.9,33.6,29.59,SE,135,2.3,2.3,20,0.00,CLR,,0.00,WeatherDisplay:10.37,2013-04-14 22:45:00,
2013-04-14 17:50:00,77.7,33.4,29.59,SE,135,5.8,5.8,20,0.00,CLR,,0.00,WeatherDisplay:10.37,2013-04-14 22:50:00,
2013-04-14 17:55:00,77.5,34.5,29.59,South,180,3.5,3.5,21,0.00,CLR,,0.00,WeatherDisplay:10.37,2013-04-14 22:55:00,
2013-04-14 18:00:00,77.4,34.4,29.62,South,180,4.6,4.6,21,0.00,CLR,,0.00,WeatherDisplay:10.37,2013-04-14 23:00:00,
2013-04-14 18:05:00,77.0,34.1,29.62,SE,135,5.8,5.8,21,0.00,CLR,,0.00,WeatherDisplay:10.37,2013-04-14 23:05:00,
2013-04-14 18:10:00,76.8,33.9,29.62,SE,135,3.8,3.8,21,0.00,CLR,,0.00,WeatherDisplay:10.37,2013-04-14 23:10:00,
2013-04-14 18:15:00,76.8,33.9,29.62,SE,135,6.9,6.9,21,0.00,CLR,,0.00,WeatherDisplay:10.37,2013-04-14 23:15:00,
2013-04-14 18:20:00,76.6,33.8,29.62,SE,135,5.8,5.8,21,0.00,CLR,,0.00,WeatherDisplay:10.37,2013-04-14 23:20:00,
2013-04-14 18:25:00,76.3,33.5,29.62,South,180,4.9,5.4,21,0.00,CLR,,0.00,WeatherDisplay:10.37,2013-04-14 23:25:00,
2013-04-14 18:30:00,75.6,34.0,29.62,SSE,158,3.5,3.5,22,0.00,CLR,,0.00,WeatherDisplay:10.37,2013-04-14 23:30:00,
2013-04-14 18:35:00,75.2,33.7,29.62,South,180,3.5,3.6,22,0.00,CLR,,0.00,WeatherDisplay:10.37,2013-04-14 23:35:00,
2013-04-14 18:40:00,74.8,34.5,29.62,South,180,8.1,8.1,23,0.00,CLR,,0.00,WeatherDisplay:10.37,2013-04-14 23:40:00,
2013-04-14 18:45:00,74.5,34.2,29.62,South,180,3.5,3.5,23,0.00,CLR,,0.00,WeatherDisplay:10.37,2013-04-14 23:45:00,
2013-04-14 18:50:00,74.1,33.9,29.62,South,180,3.5,3.5,23,0.00,CLR,,0.00,WeatherDisplay:10.37,2013-04-14 23:50:00,
2013-04-14 18:55:00,73.8,34.7,29.65,SE,135,4.6,4.6,24,0.00,CLR,,0.00,WeatherDisplay:10.37,2013-04-14 23:55:00,
2013-04-14 19:00:00,73.6,35.6,29.65,South,180,5.8,5.8,25,0.00,CLR,,0.00,WeatherDisplay:10.37,2013-04-15 00:00:00,
2013-04-14 19:05:00,73.4,35.4,29.65,South,180,4.6,4.6,25,0.00,CLR,,0.00,WeatherDisplay:10.37,2013-04-15 00:05:00,
2013-04-14 19:10:00,73.0,36.1,29.68,South,180,3.5,3.5,26,0.00,CLR,,0.00,WeatherDisplay:10.37,2013-04-15 00:10:00,
2013-04-14 19:16:00,72.9,36.0,29.68,SE,135,3.5,3.5,26,0.00,CLR,,0.00,WeatherDisplay:10.37,2013-04-15 00:16:00,
2013-04-14 19:21:00,72.5,36.6,29.68,SE,135,2.3,2.3,27,0.00,CLR,,0.00,WeatherDisplay:10.37,2013-04-15 00:21:00,
2013-04-14 19:26:00,72.3,36.4,29.68,SE,135,3.5,3.5,27,0.00,CLR,,0.00,WeatherDisplay:10.37,2013-04-15 00:26:00,
2013-04-14 19:31:00,72.0,38.0,29.68,SE,135,2.3,2.3,29,0.00,CLR,,0.00,WeatherDisplay:10.37,2013-04-15 00:31:00,
2013-04-14 19:36:00,71.6,38.5,29.68,SSE,158,3.5,0.0,30,0.00,CLR,,0.00,WeatherDisplay:10.37,2013-04-15 00:36:00,
2013-04-14 19:41:00,71.2,39.0,29.68,SSE,158,2.3,2.3,31,0.00,CLR,,0.00,WeatherDisplay:10.37,2013-04-15 00:41:00,
2013-04-14 19:46:00,70.9,38.7,29.68,SE,135,5.8,5.8,31,0.00,CLR,,0.00,WeatherDisplay:10.37,2013-04-15 00:46:00,
2013-04-14 19:51:00,70.5,39.2,29.68,SSE,158,4.6,4.6,32,0.00,CLR,,0.00,WeatherDisplay:10.37,2013-04-15 00:51:00,
2013-04-14 19:56:00,70.2,39.7,29.68,SSE,158,8.1,8.1,33,0.00,CLR,,0.00,WeatherDisplay:10.37,2013-04-15 00:56:00,
2013-04-14 20:02:00,69.8,39.4,29.68,South,180,4.6,4.6,33,0.00,CLR,,0.00,WeatherDisplay:10.37,2013-04-15 01:02:00,
2013-04-14 20:07:00,69.4,39.1,29.68,South,180,4.6,4.6,33,0.00,CLR,,0.00,WeatherDisplay:10.37,2013-04-15 01:07:00,
2013-04-14 20:12:00,69.1,39.5,29.68,SSW,202,5.8,5.8,34,0.00,CLR,,0.00,WeatherDisplay:10.37,2013-04-15 01:12:00,
2013-04-14 20:17:00,68.7,39.2,29.68,SSE,158,4.0,4.0,34,0.00,CLR,,0.00,WeatherDisplay:10.37,2013-04-15 01:17:00,
2013-04-14 20:22:00,68.5,39.8,29.68,SE,135,8.1,8.1,35,0.00,CLR,,0.00,WeatherDisplay:10.37,2013-04-15 01:22:00,
2013-04-14 20:27:00,68.2,40.2,29.71,SE,135,5.8,5.8,36,0.00,CLR,,0.00,WeatherDisplay:10.37,2013-04-15 01:27:00,
2013-04-14 20:32:00,67.8,39.9,29.71,SSE,158,5.8,5.8,36,0.00,CLR,,0.00,WeatherDisplay:10.37,2013-04-15 01:32:00,
2013-04-14 20:37:00,67.5,40.3,29.71,SE,135,8.1,8.1,37,0.00,CLR,,0.00,WeatherDisplay:10.37,2013-04-15 01:37:00,
2013-04-14 20:42:00,67.3,40.8,29.74,South,180,4.6,4.6,38,0.00,CLR,,0.00,WeatherDisplay:10.37,2013-04-15 01:42:00,
2013-04-14 20:47:00,66.9,41.1,29.74,South,180,5.4,5.4,39,0.00,CLR,,0.00,WeatherDisplay:10.37,2013-04-15 01:47:00,
2013-04-14 20:52:00,66.7,41.6,29.74,SE,135,2.3,2.6,40,0.00,CLR,,0.00,WeatherDisplay:10.37,2013-04-15 01:52:00,
2013-04-14 20:58:00,66.6,42.1,29.74,SE,135,4.6,4.6,41,0.00,CLR,,0.00,WeatherDisplay:10.37,2013-04-15 01:58:00,
2013-04-14 21:03:00,66.4,42.6,29.74,SSE,158,4.6,4.6,42,0.00,CLR,,0.00,WeatherDisplay:10.37,2013-04-15 02:03:00,
2013-04-14 21:08:00,66.0,42.3,29.74,SSE,158,4.6,4.6,42,0.00,CLR,,0.00,WeatherDisplay:10.37,2013-04-15 02:08:00,
2013-04-14 21:13:00,65.8,42.7,29.74,SSE,158,4.6,4.6,43,0.00,CLR,,0.00,WeatherDisplay:10.37,2013-04-15 02:13:00,
2013-04-14 21:18:00,65.7,43.1,29.74,SSE,158,3.5,3.5,44,0.00,CLR,,0.00,WeatherDisplay:10.37,2013-04-15 02:18:00,
2013-04-14 21:23:00,65.3,42.8,29.74,South,180,0.0,0.0,44,0.00,CLR,,0.00,WeatherDisplay:10.37,2013-04-15 02:23:00,
2013-04-14 21:28:00,65.3,43.4,29.74,South,180,2.3,0.0,45,0.00,CLR,,0.00,WeatherDisplay:10.37,2013-04-15 02:28:00,
2013-04-14 21:33:00,65.1,43.8,29.74,SSE,158,4.6,4.6,46,0.00,CLR,,0.00,WeatherDisplay:10.37,2013-04-15 02:33:00,
2013-04-14 21:38:00,64.9,44.2,29.74,SE,135,3.5,3.5,47,0.00,CLR,,0.00,WeatherDisplay:10.37,2013-04-15 02:38:00,
2013-04-14 21:43:00,64.8,44.6,29.77,SSE,158,4.6,4.6,48,0.00,CLR,,0.00,WeatherDisplay:10.37,2013-04-15 02:43:00,
2013-04-14 21:48:00,64.6,44.4,29.77,SSE,158,0.0,0.0,48,0.00,CLR,,0.00,WeatherDisplay:10.37,2013-04-15 02:48:00,
2013-04-14 21:53:00,64.4,44.3,29.77,South,180,2.3,2.3,48,0.00,CLR,,0.00,WeatherDisplay:10.37,2013-04-15 02:53:00,
2013-04-14 21:58:00,64.2,44.6,29.77,SSE,158,2.3,2.3,49,0.00,CLR,,0.00,WeatherDisplay:10.37,2013-04-15 02:58:00,
2013-04-14 22:03:00,64.2,44.6,29.77,SSE,158,0.0,0.0,49,0.00,CLR,,0.00,WeatherDisplay:10.37,2013-04-15 03:03:00,
2013-04-14 22:08:00,64.0,44.5,29.77,SE,135,0.0,0.0,49,0.00,CLR,,0.00,WeatherDisplay:10.37,2013-04-15 03:08:00,
2013-04-14 22:13:00,63.9,44.3,29.80,SSE,158,0.0,0.0,49,0.00,CLR,,0.00,WeatherDisplay:10.37,2013-04-15 03:13:00,
2013-04-14 22:18:00,63.7,44.2,29.80,SSE,158,0.0,0.0,49,0.00,CLR,,0.00,WeatherDisplay:10.37,2013-04-15 03:18:00,
2013-04-14 22:23:00,63.5,44.5,29.80,SSE,158,0.0,0.0,50,0.00,CLR,,0.00,WeatherDisplay:10.37,2013-04-15 03:23:00,
2013-04-14 22:28:00,63.3,44.4,29.80,South,180,0.0,0.0,50,0.00,CLR,,0.00,WeatherDisplay:10.37,2013-04-15 03:28:00,
2013-04-14 22:33:00,63.1,44.2,29.80,South,180,0.0,0.0,50,0.00,CLR,,0.00,WeatherDisplay:10.37,2013-04-15 03:33:00,
2013-04-14 22:38:00,63.0,44.5,29.80,SSE,158,0.0,0.0,51,0.00,CLR,,0.00,WeatherDisplay:10.37,2013-04-15 03:38:00,
2013-04-14 22:43:00,63.0,44.5,29.80,SSE,158,0.0,0.0,51,0.00,CLR,,0.00,WeatherDisplay:10.37,2013-04-15 03:43:00,
2013-04-14 22:48:00,63.0,45.1,29.80,SE,135,0.0,0.0,52,0.00,CLR,,0.00,WeatherDisplay:10.37,2013-04-15 03:48:00,
2013-04-14 22:53:00,62.8,44.9,29.80,SE,135,0.0,0.0,52,0.00,CLR,,0.00,WeatherDisplay:10.37,2013-04-15 03:53:00,
2013-04-14 22:58:00,62.8,45.4,29.80,SSE,158,0.0,0.0,53,0.00,CLR,,0.00,WeatherDisplay:10.37,2013-04-15 03:58:00,
2013-04-14 23:00:00,62.6,45.2,29.80,SSE,158,0.0,0.0,53,0.00,CLR,,0.00,WeatherDisplay:10.37,2013-04-15 04:00:00,
2013-04-14 23:05:00,62.6,45.2,29.80,SSE,158,0.0,0.0,53,0.00,CLR,,0.00,WeatherDisplay:10.37,2013-04-15 04:05:00,
2013-04-14 23:10:00,62.4,45.5,29.80,SSE,158,0.0,0.0,54,0.00,CLR,,0.00,WeatherDisplay:10.37,2013-04-15 04:10:00,
2013-04-14 23:15:00,62.2,45.9,29.80,SSE,158,0.0,0.0,55,0.00,CLR,,0.00,WeatherDisplay:10.37,2013-04-15 04:15:00,
2013-04-14 23:20:00,61.9,45.0,29.80,SSE,158,0.0,0.0,54,0.00,CLR,,0.00,WeatherDisplay:10.37,2013-04-15 04:20:00,
2013-04-14 23:25:00,61.5,44.7,29.80,SSE,158,0.0,0.0,54,0.00,CLR,,0.00,WeatherDisplay:10.37,2013-04-15 04:25:00,
2013-04-14 23:30:00,61.3,45.0,29.80,SSE,158,0.0,0.0,55,0.00,CLR,,0.00,WeatherDisplay:10.37,2013-04-15 04:30:00,
2013-04-14 23:35:00,61.0,45.2,29.80,SSE,158,0.0,0.0,56,0.00,CLR,,0.00,WeatherDisplay:10.37,2013-04-15 04:35:00,
2013-04-14 23:40:00,60.8,45.0,29.80,SSE,158,0.0,0.0,56,0.00,CLR,,0.00,WeatherDisplay:10.37,2013-04-15 04:40:00,
2013-04-14 23:45:00,60.6,44.8,29.80,SSE,158,0.0,0.0,56,0.00,CLR,,0.00,WeatherDisplay:10.37,2013-04-15 04:45:00,
2013-04-14 23:50:00,60.4,44.2,29.80,SSE,158,0.0,0.0,55,0.00,CLR,,0.00,WeatherDisplay:10.37,2013-04-15 04:50:00,
2013-04-14 23:55:00,60.4,43.7,29.80,SSE,158,0.0,0.0,54,0.00,CLR,,0.00,WeatherDisplay:10.37,2013-04-15 04:55:00,